Home   Weather   Mariehamn   Past weeks
Flag for Åland Islands

Past Weather in Mariehamn, Åland Islands — Yesterday and Last 2 Weeks

Currently: 41 °F. Partly sunny. (Weather station: Mariehamn / Aland Island, Åland Islands). See more current weather

Past Weather in Mariehamn — Graph

°F

Mariehamn Temperature Yesterday

Maximum temperature yesterday: 36 °F (at 1:50 pm)
Minimum temperature yesterday: 27 °F (at 5:20 am)
Average temperature yesterday: 31 °F

High & Low Weather Summary for the Past Weeks

 TemperatureHumidityPressure
High43 °F (Mar 19, 10:50 am)100% (Mar 7, 9:20 pm)30.21 "Hg (Mar 7, 9:20 pm)
Low-4 °F (Mar 9, 6:50 am)40% (Mar 11, 3:50 pm)28.65 "Hg (Mar 14, 3:50 am)
Average29 °F88%29.56 "Hg
* Reported Mar 7 5:20 pm — Mar 22 5:50 pm, Mariehamn. Weather by CustomWeather, © 2023

Note: Actual official high and low records may vary slightly from our data, if they occured in-between our weather recording intervals... More about our weather records

Mariehamn Weather History for the Previous 24 Hours

Scroll right to see more
 ConditionsComfort  
Time TempWeatherWind HumidityBarometerVisibility
5:50 pm
Wed, Mar 22
39 °FPartly sunny.13 mph100%29.39 "HgN/A
5:20 pm39 °FMostly cloudy.13 mph100%29.39 "Hg5 mi
4:50 pm39 °FMore clouds than sun.15 mph100%29.42 "HgN/A
4:20 pm39 °FLow clouds.14 mph100%29.42 "HgN/A
3:50 pm39 °FLow clouds.16 mph100%29.42 "HgN/A
3:20 pm37 °FFog.12 mph100%29.42 "Hg4 mi
2:50 pm39 °FFog.12 mph100%29.45 "Hg1 mi
2:20 pm39 °FFog.12 mph100%29.45 "Hg1 mi
1:50 pm37 °FFog.13 mph100%29.45 "Hg1 mi
1:20 pm37 °FFog.10 mph100%29.47 "Hg1 mi
12:50 pm37 °FLight rain. Dense fog.13 mph100%29.47 "Hg1 mi
12:20 pm37 °FLight rain. Dense fog.13 mph100%29.47 "Hg1 mi
11:50 am37 °FLight rain. Dense fog.12 mph100%29.47 "Hg1 mi
11:20 am37 °FLight rain. Dense fog.13 mph100%29.47 "Hg1 mi
10:50 am37 °FLight rain. Dense fog.14 mph100%29.50 "Hg1 mi
10:20 am37 °FLight rain. Dense fog.15 mph100%29.50 "Hg1 mi
9:50 am37 °FDrizzle. Low clouds.16 mph100%29.50 "Hg2 mi
9:20 am37 °FLight rain. Low clouds.14 mph100%29.53 "HgN/A
8:20 am36 °FRain. Low clouds.15 mph100%29.56 "HgN/A
7:50 am36 °FRain. Low clouds.14 mph100%29.59 "HgN/A
7:20 am36 °FLight rain. Low clouds.13 mph100%29.59 "HgN/A
6:50 am36 °FSprinkles. Low clouds.14 mph100%29.62 "Hg4 mi
6:20 am36 °FSprinkles. Low clouds.13 mph100%29.62 "Hg4 mi
5:50 am36 °FLow clouds.12 mph100%29.65 "HgN/A
5:20 am36 °FFog.10 mph100%29.65 "Hg2 mi
4:50 am34 °FDense fog.10 mph100%29.68 "Hg1 mi
4:20 am34 °FDense fog.12 mph100%29.68 "Hg1 mi
3:20 am34 °FDense fog.9 mph100%29.71 "Hg1 mi
2:50 am34 °FFog.7 mph100%29.71 "Hg2 mi
1:20 am34 °FPassing clouds.8 mph100%29.77 "HgN/A
12:50 am34 °FPassing clouds.7 mph100%29.77 "HgN/A
11:50 pm
Tue, Mar 21
34 °FClear.6 mph93%29.77 "Hg10 mi
11:20 pm32 °FClear.3 mph100%29.77 "Hg10 mi
10:50 pm32 °FClear.6 mph100%29.80 "Hg10 mi
10:20 pm32 °FClear.5 mph93%29.80 "Hg10 mi
9:20 pm32 °FClear.3 mph100%29.80 "Hg10 mi
8:50 pm34 °FClear.3 mph100%29.80 "Hg10 mi
8:20 pm32 °FClear.3 mph100%29.80 "Hg10 mi
7:50 pm34 °FPassing clouds.3 mph100%29.80 "HgN/A
7:20 pm34 °FPassing clouds.6 mph100%29.80 "HgN/A
Weather by CustomWeather, © 2023

See weather overview